RH
81 80 79 79 78 80 81 79 80 79 79 79 81 82 83 83 75 18 8 22 29 66 58 20 20 18 18 24 28 30 28 21 26 25 30 21 22 17 15 16 14 13 13 14 16
81 80 81 79 79 83 83 82 81 81 80 80 81 82 82 82 16 8 36 62 71 66 22 23 22 20 20 21 21 27 26 33 28 24 25 21 21 18 17 16 16 16 14 14 15
80 80 80 80 81 84 83 82 81 81 81 81 82 82 81 52 14 9 56 71 63 53 17 18 18 18 23 21 20 23 27 26 26 22 20 20 20 16 18 23 17 17 16 15 13
81 81 81 82 83 82 84 84 82 82 82 82 83 81 76 17 17 9 50 57 48 19 16 17 18 21 23 22 18 23 22 22 23 20 20 20 17 18 19 21 14 14 14 14 13
83 82 83 84 81 80 83 84 82 82 82 83 83 80 25 10 10 10 46 40 15 16 18 18 17 19 22 19 17 20 20 19 19 19 19 18 19 18 18 15 12 12 14 13 12
85 84 84 84 84 82 84 85 81 83 85 84 81 78 13 12 8 9 11 12 13 13 15 17 16 16 20 19 20 19 18 18 18 18 18 19 19 18 16 13 12 13 14 13 14
88 87 86 87 87 86 85 86 84 86 86 82 79 21 9 12 8 9 11 14 14 14 17 15 14 16 16 20 17 17 20 19 18 18 19 18 21 20 15 13 13 12 12 14 16
89 89 90 91 89 87 86 87 88 87 83 79 71 10 11 9 8 9 9 11 12 14 15 14 14 17 16 17 17 18 18 21 18 18 18 19 24 17 13 13 14 12 12 16 16
90 91 92 92 92 89 87 87 84 73 66 64 16 8 11 20 10 9 9 11 12 12 12 12 14 18 18 18 17 18 13 14 22 17 18 19 20 18 13 13 14 12 12 15 15
93 94 94 93 93 90 88 84 73 56 34 13 8 11 10 10 10 9 9 11 12 13 14 14 14 16 15 14 14 12 10 10 14 19 19 19 19 18 15 14 14 13 11 13 14
94 94 94 93 92 89 52 17 17 16 13 13 12 11 10 9 10 10 10 11 11 12 14 15 16 15 14 14 12 11 11 12 14 19 19 18 17 15 18 16 16 14 11 11 12
94 94 93 92 91 89 46 17 24 24 18 14 12 10 10 9 11 10 10 12 13 14 14 15 16 14 12 13 13 12 12 12 16 18 17 14 16 15 15 18 16 15 12 11 11
92 93 92 92 88 47 22 27 24 22 17 16 12 12 11 10 11 12 11 11 14 15 13 15 17 13 14 14 14 12 14 12 12 14 16 18 21 18 16 16 16 14 14 12 12
89 93 92 93 50 22 24 23 23 22 16 17 15 13 12 12 15 12 12 14 13 14 15 15 14 15 16 15 13 16 13 14 16 18 16 16 14 17 16 18 18 17 15 14 13
88 92 92 97 30 22 24 21 23 21 20 15 14 12 12 14 15 15 13 15 15 14 15 19 15 16 17 16 14 16 16 17 19 19 18 20 18 15 14 16 15 15 15 15 13
86 90 92 51 26 22 22 23 23 20 20 19 15 15 14 15 14 15 14 14 15 16 16 17 14 14 14 13 13 17 18 20 23 21 24 18 15 15 13 11 11 12 13 14 13
95 90 81 46 23 24 24 22 19 18 14 17 17 16 15 15 15 15 16 16 16 20 19 18 16 14 12 15 17 18 19 24 27 29 18 18 17 11 11 12 11 12 12 13 13
95 93 70 37 27 27 23 19 23 16 14 17 17 16 17 15 14 15 15 16 16 16 14 15 20 18 13 14 16 15 18 20 28 20 16 21 22 15 11 13 13 13 12 14 15
95 43 35 26 27 26 24 23 14 14 14 17 18 18 17 17 16 16 15 14 14 14 16 14 19 15 13 11 14 19 21 19 19 18 18 15 12 17 14 13 15 16 16 17 16
52 40 33 25 26 23 25 30 16 16 18 18 19 16 17 18 18 17 16 16 18 18 16 15 17 18 17 14 16 16 16 22 23 49 27 10 11 11 19 14 13 15 16 18 17
50 43 31 25 23 23 26 21 18 17 18 18 18 19 17 18 17 16 15 20 18 20 17 16 16 23 21 21 17 18 16 16 21 20 26 20 12 9 10 12 12 13 14 16 18
45 41 29 25 31 23 24 20 38 21 20 21 19 18 18 18 19 18 18 18 18 18 18 15 17 16 16 18 17 16 14 14 32 34 21 34 28 9 9 10 11 12 12 14 16
43 36 29 27 38 31 26 28 27 24 22 21 20 20 18 20 23 21 21 30 25 20 19 18 17 18 23 23 22 21 18 15 22 26 33 45 22 11 11 12 12 13 12 12 14
45 44 37 32 29 31 30 30 29 26 22 20 18 19 21 21 20 23 22 30 29 21 40 30 19 18 23 21 21 27 27 20 18 32 32 24 16 14 15 16 12 12 14 13 13
48 45 42 44 36 34 28 30 30 29 25 22 22 22 21 24 21 24 21 28 27 41 25 23 23 18 17 16 18 18 18 25 33 18 23 18 18 14 14 14 12 13 12 14 14
52 50 43 48 43 38 44 36 34 28 25 27 26 22 20 22 20 20 20 22 22 29 24 22 24 22 21 17 18 22 20 21 22 22 20 18 20 14 13 11 10 10 12 14 15
52 47 47 61 40 41 42 36 32 27 24 23 23 24 24 21 18 18 19 20 20 25 27 26 28 28 27 20 22 26 24 22 22 19 19 23 17 13 17 16 15 16 14 14 15
Wind_Speed
12 12 11 11 10 9 9 9 9 8 8 8 9 10 11 11 10 8 3 8 7 10 4 5 5 4 3 2 3 3 6 3 4 2 9 9 5 3 2 8 6 3 8 13 12
12 12 12 12 11 10 9 9 9 10 9 9 9 9 10 10 11 2 6 9 8 5 6 9 7 5 2 1 1 4 4 8 6 6 4 8 3 7 7 8 7 9 12 12 10
13 13 13 12 12 11 10 10 10 10 10 10 10 10 8 9 10 6 9 8 4 6 8 5 2 3 1 2 5 5 6 4 5 5 6 7 6 4 4 7 8 11 12 10 7
13 13 12 12 11 11 11 11 11 10 10 11 10 10 8 8 2 7 7 5 4 6 5 4 6 3 3 2 3 3 5 4 4 4 4 6 7 5 1 6 5 12 13 10 7
13 14 13 13 14 14 12 11 12 12 10 10 10 10 7 7 6 8 3 3 5 3 5 6 8 2 3 3 1 5 6 6 6 5 5 5 3 3 5 5 9 12 11 9 6
13 13 13 13 13 14 14 13 13 12 11 11 9 8 7 6 2 6 7 2 5 4 1 4 3 5 5 4 4 5 8 9 5 6 4 4 3 4 7 9 12 11 10 9 6
13 14 14 13 13 14 14 13 13 11 11 10 9 5 6 7 2 6 7 6 4 2 4 4 4 3 4 5 5 10 7 6 6 6 3 3 7 8 13 12 12 11 10 8 7
14 15 15 15 15 14 14 14 12 11 8 7 6 7 3 3 2 2 2 8 11 13 11 8 9 7 2 9 6 5 5 6 8 6 4 5 5 8 12 13 12 11 11 9 8
13 15 16 17 17 18 16 14 10 5 2 3 5 6 5 3 4 2 3 3 6 6 6 4 1 4 6 7 6 6 5 1 7 7 3 8 4 10 12 12 11 11 11 10 9
12 13 15 17 17 18 17 8 3 2 4 5 3 6 5 2 4 2 2 2 2 3 5 5 4 6 6 7 5 7 6 0 4 7 7 9 11 9 11 13 12 11 11 11 10
10 13 15 18 19 17 12 5 6 6 6 5 5 4 4 5 4 2 1 4 4 7 8 3 7 3 8 4 5 5 5 6 4 3 7 11 11 7 12 12 12 12 12 12 11
12 13 16 19 20 14 7 2 5 5 3 0 1 3 2 1 3 4 3 5 4 7 2 7 5 6 3 2 4 4 6 3 4 1 5 8 11 10 11 14 14 14 13 13 12
13 14 17 20 18 6 7 4 4 2 6 5 1 2 2 4 2 4 3 1 4 6 5 8 6 3 2 4 7 5 6 4 4 3 10 9 9 8 9 10 12 14 13 13 14
12 14 17 24 4 3 2 4 3 3 6 7 4 4 4 1 4 2 3 3 4 4 2 3 3 3 4 7 6 9 3 2 4 5 3 3 2 10 12 11 13 14 15 15 14
9 13 16 13 8 3 5 6 2 4 6 3 5 3 2 4 3 4 2 3 5 2 4 4 2 3 6 4 4 5 3 5 5 7 7 8 6 9 8 11 14 15 16 16 14
8 10 15 2 4 4 7 6 5 7 2 5 4 5 7 6 4 4 3 1 3 3 3 3 1 1 5 1 1 1 7 7 4 5 6 7 4 9 8 6 7 12 14 15 15
12 11 9 5 3 7 8 5 7 7 3 6 4 5 7 6 7 6 6 7 5 5 8 5 4 3 2 4 3 4 8 4 5 5 3 3 4 4 9 6 6 10 13 14 15
15 14 6 5 5 6 6 7 9 4 2 3 2 4 6 6 3 5 4 9 7 7 6 6 5 4 2 2 5 2 5 5 5 3 5 3 6 3 6 6 6 4 7 13 14
18 6 4 3 2 3 6 10 3 3 4 6 4 6 6 5 3 6 9 8 3 9 6 4 3 3 2 2 3 4 3 4 7 2 4 4 5 6 6 8 8 10 10 12 15
5 4 3 2 3 5 7 13 3 1 2 4 6 4 3 7 6 6 6 3 3 2 1 3 4 1 3 3 2 4 3 3 4 4 5 4 5 3 10 13 13 13 14 13 15
5 5 5 3 5 6 11 15 8 4 5 5 3 4 4 3 8 5 0 4 2 4 4 1 3 4 2 7 1 5 4 4 4 3 5 6 0 6 7 10 12 13 14 15 16
4 5 2 5 7 7 12 8 5 7 6 4 4 5 5 3 5 5 3 2 2 6 5 3 3 5 2 3 2 4 3 4 3 2 2 4 9 1 1 5 6 9 12 14 14
4 1 2 6 8 11 8 4 4 7 8 7 8 7 4 5 5 7 2 3 2 5 2 5 6 4 6 4 2 5 6 6 1 1 8 4 5 1 3 5 7 9 11 13 15
2 5 5 6 6 10 14 14 13 9 12 9 6 5 7 7 6 2 5 3 3 3 2 2 4 8 8 7 2 4 7 10 10 5 7 14 20 17 11 11 11 12 12 14 15
4 4 4 7 11 12 11 3 14 11 10 9 10 14 12 11 11 8 5 5 4 5 4 4 7 9 11 9 6 9 10 12 15 21 13 19 18 19 19 19 17 13 13 14 15
3 4 2 3 4 12 13 11 15 12 12 12 14 12 17 17 14 7 13 9 9 9 7 6 5 2 11 8 9 13 14 16 19 20 20 21 25 21 13 9 11 12 12 15 17
3 1 4 4 7 8 13 14 15 14 10 14 9 15 12 13 11 7 5 3 2 6 11 7 5 4 12 1 4 11 19 18 11 11 10 11 13 12 16 14 11 10 11 14 16
Wind_Direction
18 15 10 9 4 354 348 347 336 333 329 327 327 325 322 321 313 218 53 350 305 319 287 215 209 163 182 95 344 272 256 273 55 300 97 144 140 75 102 120 70 52 65 98 125
17 16 10 4 0 351 345 345 337 330 328 326 324 325 321 323 258 128 13 326 291 252 221 203 199 207 141 5 357 294 277 39 23 41 116 164 172 139 157 138 116 112 109 120 144
14 11 7 3 356 347 341 338 333 332 327 326 323 319 320 309 249 71 12 344 36 194 263 263 276 259 317 341 7 18 5 97 50 44 115 130 133 145 171 204 157 160 146 146 138
8 5 1 356 350 347 339 335 329 327 325 324 320 314 319 254 343 28 357 330 302 276 215 204 225 228 303 358 41 154 56 39 113 88 129 158 121 144 240 60 118 138 147 150 152
2 358 354 349 347 343 337 333 329 322 317 318 314 312 278 225 65 24 356 195 263 242 253 244 255 242 265 86 72 79 112 89 100 115 107 140 145 96 133 139 129 134 148 157 139
359 356 348 344 339 336 330 326 323 318 314 311 303 310 259 259 45 1 357 325 359 250 160 268 339 45 91 56 354 104 119 122 137 136 139 183 164 205 156 151 143 154 162 170 157
358 349 346 338 332 326 322 317 315 309 303 299 293 276 255 60 45 29 54 43 14 316 102 84 82 308 134 116 122 139 130 149 171 172 127 263 204 225 145 173 165 178 171 171 172
354 347 342 333 328 319 316 312 306 300 296 274 275 262 54 109 66 164 60 72 70 81 96 88 92 87 25 116 153 224 218 218 142 181 133 237 92 136 163 182 182 183 183 186 188
351 344 337 332 327 320 314 306 291 277 250 203 251 264 118 138 180 93 304 92 100 102 88 131 131 108 155 225 196 195 313 268 158 203 143 228 333 144 179 197 192 191 199 190 190
344 338 331 327 324 320 312 280 260 221 206 213 257 250 167 138 114 134 102 197 279 167 175 220 210 229 221 236 345 345 308 172 314 151 224 237 261 163 196 207 210 203 208 199 208
341 337 330 328 324 321 311 199 199 182 212 343 28 66 117 96 183 152 139 212 238 241 265 167 265 280 10 357 339 319 303 296 98 107 274 251 258 241 189 212 218 210 212 208 212
338 337 331 328 324 315 275 340 43 352 252 169 219 127 85 256 189 145 229 227 215 265 261 224 246 51 38 314 290 283 292 312 109 156 255 281 264 242 207 207 215 218 216 214 209
336 337 334 328 325 289 55 52 322 260 253 121 140 232 109 215 291 132 248 229 261 262 271 293 50 97 279 270 278 244 291 337 322 304 242 277 250 194 215 208 209 223 223 219 211
335 335 335 326 304 359 92 350 305 263 263 126 156 117 163 246 205 1 351 298 208 294 297 352 79 257 260 279 312 290 67 297 293 287 347 220 347 192 168 207 214 218 219 217 208
341 330 330 329 324 261 24 329 293 232 273 103 130 57 153 224 116 117 355 238 262 180 241 75 190 245 262 23 337 16 302 280 282 269 298 187 255 112 168 218 210 212 209 209 203
329 321 327 158 249 355 323 307 232 229 227 131 134 168 184 191 159 133 180 76 346 214 218 54 107 303 7 77 2 31 265 241 249 252 231 121 275 161 182 208 164 183 199 198 202
328 311 303 302 1 338 311 233 226 252 135 145 173 191 215 178 189 204 193 192 235 228 204 163 168 120 254 248 183 237 268 234 199 208 17 119 254 311 135 146 165 180 189 192 193
314 310 193 270 310 315 265 231 243 37 190 89 162 186 214 160 207 196 222 239 210 259 298 268 207 188 120 318 342 300 320 310 300 318 348 165 230 128 127 131 151 164 188 186 192
308 208 233 135 269 246 246 220 283 212 101 164 170 231 179 188 289 216 228 259 19 205 257 282 131 120 30 326 302 109 247 4 295 223 265 217 204 154 175 183 191 199 194 200 194
300 255 185 92 208 213 234 245 248 55 165 192 235 230 247 164 208 201 186 107 171 216 133 41 257 210 108 243 179 273 351 243 191 303 285 213 275 270 202 218 197 208 207 206 199
253 223 103 208 223 213 226 227 238 205 237 223 234 215 249 207 241 223 300 126 199 149 201 251 238 118 203 203 156 164 198 214 290 266 304 312 177 15 173 194 200 206 206 201 199
284 226 100 204 201 219 234 223 17 221 224 248 283 269 252 199 233 247 254 44 142 174 178 161 295 260 36 89 356 303 298 249 256 155 239 284 276 262 45 177 200 194 194 199 199
242 221 143 238 216 207 217 241 238 225 214 204 232 235 214 225 239 228 211 84 166 210 213 163 198 252 174 177 174 236 202 247 176 216 239 268 265 68 209 226 226 232 196 195 197
265 211 163 216 273 275 213 225 223 214 245 231 251 220 211 223 226 228 204 139 174 219 16 291 276 262 283 1 83 195 202 215 219 222 250 233 275 285 256 234 235 228 227 201 199
227 246 5 202 219 229 246 233 221 219 221 226 232 229 222 238 216 220 196 155 180 166 200 246 263 264 271 282 238 262 253 207 211 231 259 272 276 288 297 300 281 237 226 220 205
212 217 193 326 320 231 218 235 233 230 206 216 233 219 234 241 237 247 220 209 212 177 193 194 260 267 276 265 259 257 260 248 232 253 264 269 279 281 292 325 297 259 236 219 219
181 189 280 140 207 211 225 236 243 239 222 247 246 239 234 252 270 319 318 327 286 179 194 186 223 241 272 55 272 264 241 234 226 225 242 254 264 323 315 301 288 286 258 233 224